Location: ??????
(38.0677°N, 22.9870°E)
Time: 09:49:43
(UTC+00:00)

Resurs 1-4 Rocket - Pass Details

Date: 23 May 2024
Orbit: 798 x 813 km, 98.7° (Epoch: 23 June)

Event Time Altitude Azimuth Distance (km) Brightness Sun altitude
Rises 02:08:32 0° 348° (NNW) 3,312 5.7 -11.3°
Reaches altitude 10° 02:13:46 10° 304° (NW) 2,375 4.4 -10.4°
Maximum altitude 02:14:01 10° 301° (WNW) 2,372 4.3 -10.4°
Drops below altitude 10° 02:14:16 10° 298° (WNW) 2,375 4.3 -10.4°
Enters shadow 02:17:05 - 270° (W) 2,700 4.3 -9.9°
